Погода в Чартаке

Узбекистан     40°51′21″N   71°09′28″E
темп.,
°C
ветер,
м/с
пор.,
м/с
влажн.,
%
обл.,
%
осадки,
мм/ч
давл.,
гПа
погр.,
м
28 июля, ср
ср2823:00+33зюз611221 0.0 996343
02:00+29з58275 0.0 998297
05:00+26зсз35305 0.0 99993
08:00+32сз34210 0.0 1000806
11:00+38з34150 0.0 9981860
14:00+41юз54130 0.0 9952135
17:00+40зюз77120 0.0 9941699
20:00+34юз611160 0.0 995324
29 июля, чт
чт2923:00+32зюз611171 0.0 996335
02:00+29з592043 0.0 997308
05:00+27з352557 0.0 998120
08:00+32зсз24175 0.0 1000864
11:00+38юз43121 0.0 9981863
14:00+41юз9893 0.0 9962653
17:00+40юз121183 0.0 9952027
20:00+35зюз1116120 0.0 996698
30 июля, пт
пт3023:00+32зюз917165 0.0 998521
02:00+29зюз612205 0.0 1000329
05:00+26зюз8122344 0.0 1003378
08:00+29зюз551920 0.0 1005544
11:00+35ююв211439 0.0 10041762
14:00+39юз55115 0.0 10012942
17:00+37юз76125 0.0 10011930
20:00+31юз47170 0.0 1002152
31 июля, сб
сб3123:00+29зюз48190 0.0 1003236
02:00+25в45270 0.0 100487
05:00+23св35360 0.0 100583
08:00+30всв44220 0.0 1005492
11:00+36вюв22120 0.0 10031444
14:00+40юз22100 0.0 9992734
17:00+41зюз4390 0.0 9982803
20:00+33з461719 0.0 99981
1 августа, вс
вс123:00+30ююз222157 0.0 99927
02:00+27всв352475 0.0 100068
05:00+25всв34265 0.0 100153
08:00+31в221770 0.0 1001425
11:00+38з221191 0.0 9991192
14:00+43юз4390 0.0 9963337
17:00+42з5590 0.0 9953418
20:00+36юз61212100 0.0 996319